Theta_e
309 309 308 308 309 308 309 308 309 309 309 309 309 309 309 309 309 310 309 309 310 310 310 311 311 311 311 311 311 311 311 311 312 313 313 314 314 314 313 313 314 314 314 315 315 315 314 314 313 313 313 313 314 315 316 315 315 316 317 316 314 315 315 316 318 317 317 317 316 315 314 316 316 316 315 315 315 314 315 315 313 313 313 313 313 313 313 313
309 309 309 309 309 309 309 309 309 309 309 309 309 309 309 309 309 310 310 310 310 310 310 311 310 311 311 311 311 311 311 312 312 313 314 314 314 313 313 314 315 314 315 315 315 315 314 314 313 313 313 314 315 315 316 316 316 316 317 316 315 315 315 315 317 316 316 316 316 315 314 315 316 315 314 315 316 315 315 315 314 313 312 312 312 312 312 312
310 310 309 309 309 309 309 309 309 309 309 309 309 309 309 310 310 310 310 310 310 310 310 310 310 310 311 311 311 311 311 312 312 313 314 314 314 314 314 314 315 315 315 315 315 314 314 314 313 313 313 315 315 314 316 317 316 317 317 318 316 315 314 313 315 315 315 315 316 315 314 314 315 314 314 315 315 316 315 315 314 314 312 312 312 311 312 312
311 311 310 310 309 309 309 309 309 309 309 309 309 310 310 310 310 310 310 310 310 310 310 310 311 310 311 311 311 311 311 313 314 313 314 314 314 314 315 315 315 315 314 315 315 314 314 313 313 313 314 315 314 314 316 316 317 317 317 317 316 314 315 314 314 315 314 314 315 314 313 314 314 313 313 314 315 316 314 312 312 312 311 311 311 311 312 313
312 312 311 311 310 310 310 309 309 310 309 309 310 310 310 310 310 310 310 310 310 310 311 310 311 311 311 310 311 311 311 314 315 313 313 314 314 314 314 315 315 315 314 315 315 314 314 313 313 313 314 315 315 314 316 315 315 317 316 316 316 314 316 315 314 315 314 314 314 313 313 314 313 312 312 313 315 315 312 310 310 310 310 310 311 312 312 312
311 312 312 312 311 311 310 310 309 310 309 309 309 310 310 310 310 310 310 310 310 310 310 310 310 310 310 311 311 311 312 314 314 313 313 313 314 314 314 314 314 315 314 315 315 314 313 313 313 314 315 315 315 315 315 314 315 317 316 314 315 315 316 315 314 314 313 313 313 313 313 313 312 313 312 312 312 311 309 309 309 309 310 311 312 312 312 312
310 311 311 312 311 311 311 311 310 310 310 309 309 310 310 310 310 310 310 310 310 310 310 310 310 310 310 310 310 312 313 313 313 313 313 313 314 313 314 314 314 315 314 316 315 314 313 313 314 314 315 314 314 314 314 314 314 316 316 314 314 314 315 314 313 313 312 312 313 312 312 312 313 313 311 310 309 308 309 309 309 310 310 311 312 312 312 312
309 310 310 311 311 312 311 311 311 310 310 309 309 309 309 310 310 310 310 310 310 310 310 310 310 310 310 310 311 313 314 313 313 313 313 314 314 314 314 314 314 315 315 316 316 314 313 313 314 314 315 314 313 314 313 313 315 315 315 314 314 313 313 313 312 312 312 312 312 311 311 313 312 312 311 308 307 307 308 309 309 310 310 311 311 311 311 311
308 309 309 310 310 311 311 311 311 311 310 310 310 310 310 310 310 310 310 310 310 310 310 310 310 310 310 311 313 314 314 314 315 315 315 314 314 314 314 314 315 316 316 317 316 314 313 313 314 314 315 313 313 314 312 314 316 315 314 314 313 313 312 312 312 313 312 312 312 312 313 312 310 311 310 307 306 308 308 309 309 309 309 310 310 310 310 310
308 308 308 309 309 310 311 311 311 311 311 310 310 310 310 310 310 310 310 310 310 310 310 310 310 310 311 313 314 315 315 316 316 317 317 317 316 316 316 316 317 317 318 317 316 314 314 314 314 314 314 314 313 314 313 314 315 313 313 313 313 313 312 312 312 312 311 311 311 312 314 311 309 311 311 306 306 308 308 308 308 308 309 310 309 309 309 309
308 308 308 308 308 309 309 310 310 311 311 310 310 310 310 310 310 310 310 310 309 309 309 310 310 312 314 315 316 316 316 316 317 318 319 319 319 319 319 319 319 319 319 318 317 315 314 314 314 314 315 314 314 313 312 313 313 312 312 313 314 314 313 312 312 311 311 312 310 311 312 310 309 311 310 307 307 308 307 308 308 309 309 309 309 309 309 309
308 308 307 307 308 308 308 309 309 309 310 310 310 310 309 309 309 309 309 309 309 309 310 312 313 314 315 315 316 317 316 316 317 318 319 319 319 319 319 319 319 318 318 318 317 315 314 313 314 315 315 315 315 313 313 312 312 312 312 315 315 315 315 313 311 310 311 312 310 311 313 312 311 310 308 306 307 308 308 308 309 309 309 309 309 309 309 309
308 307 307 307 307 307 307 307 308 308 308 308 309 308 309 309 308 309 309 309 310 311 313 315 316 316 316 316 317 317 317 317 317 317 318 318 318 319 319 318 318 317 317 318 317 315 314 314 314 314 314 315 314 314 313 311 311 313 312 313 315 317 316 313 311 311 311 312 310 311 315 314 311 309 308 307 307 307 308 309 308 308 308 308 308 308 309 309
307 307 307 307 307 307 307 307 307 307 307 307 308 308 308 308 308 309 310 311 313 315 316 317 316 316 316 317 318 317 318 318 318 317 317 317 317 317 317 317 316 316 316 316 316 315 316 315 315 315 314 314 314 313 313 312 312 313 312 313 315 317 317 313 311 312 313 312 309 312 317 315 311 309 309 308 307 307 308 308 307 307 307 308 308 308 308 308
307 307 306 307 307 306 306 306 306 306 307 307 307 308 308 309 310 312 314 315 316 317 317 317 317 316 316 317 318 317 318 317 318 317 317 317 317 316 316 316 316 316 316 315 316 316 316 316 316 315 313 313 313 313 314 314 313 313 314 316 316 316 317 314 311 311 313 312 310 313 316 316 311 309 309 308 308 307 308 307 306 307 306 307 307 307 307 307
307 307 307 307 307 306 306 306 307 307 307 307 308 309 311 313 314 315 316 316 317 316 316 316 316 316 317 317 317 317 317 317 317 317 317 316 316 316 316 316 315 315 315 315 315 316 316 315 314 313 313 313 314 315 316 316 315 314 315 318 318 316 317 316 312 310 311 311 312 313 316 316 312 309 308 307 308 307 307 306 304 305 305 305 305 305 306 306
307 306 307 307 307 307 307 307 307 307 308 309 311 313 315 316 317 317 316 316 315 315 315 316 316 316 317 317 316 317 317 317 317 317 317 316 315 315 315 315 315 315 315 315 315 315 315 314 313 313 313 313 314 316 317 317 318 316 315 316 317 315 315 316 314 312 311 312 314 313 315 316 312 309 308 307 307 307 307 305 303 304 304 304 304 305 305 306
307 306 307 307 307 307 307 307 308 309 310 312 314 316 317 317 316 316 315 315 315 315 315 316 316 317 318 317 317 317 317 317 317 317 316 316 315 315 315 315 315 315 315 315 315 315 315 314 313 314 314 313 314 316 317 318 319 318 317 316 316 314 314 315 315 313 311 313 315 314 315 316 312 308 307 306 306 306 306 304 303 302 302 303 304 304 305 306
307 307 307 307 307 307 307 308 309 311 313 315 316 316 316 315 315 315 315 315 316 316 317 317 316 318 318 317 317 317 317 317 316 316 316 316 315 315 315 315 315 315 315 315 315 314 314 314 314 316 316 314 314 316 318 318 318 318 317 317 317 316 316 315 314 312 311 313 315 315 316 317 314 310 307 306 305 305 305 303 303 302 302 303 303 304 305 306
307 307 307 307 307 307 308 309 311 313 315 315 316 315 315 316 317 317 315 315 316 317 318 318 317 318 317 316 316 316 316 316 316 316 316 316 316 315 315 315 314 315 314 316 316 313 313 316 316 317 318 316 315 316 316 315 315 315 316 316 316 317 317 315 313 310 310 313 315 315 315 316 316 311 307 306 305 305 305 304 304 303 302 302 303 304 305 306
308 307 307 307 307 308 309 311 313 314 315 315 315 315 316 316 317 318 317 316 317 317 317 317 317 317 317 316 316 316 316 316 316 316 316 316 315 315 314 314 314 314 313 313 314 312 312 316 318 318 317 315 314 314 313 313 313 314 315 316 316 316 317 314 312 310 309 312 314 313 312 315 315 311 307 305 306 306 305 305 304 303 302 302 302 303 304 305
308 307 307 307 307 308 311 312 314 314 315 315 314 315 315 316 317 317 318 318 317 317 317 316 316 316 316 316 316 316 316 316 316 316 316 316 316 315 314 313 314 314 312 311 313 313 314 316 317 315 313 312 311 311 311 312 313 313 314 315 316 316 316 314 311 309 309 312 314 312 312 315 314 308 305 306 306 305 304 303 303 302 302 302 301 302 303 305
308 308 308 309 309 310 312 313 314 314 314 314 315 315 315 315 316 316 317 317 317 317 317 317 317 316 316 316 316 315 316 316 316 316 316 316 315 314 313 313 313 313 311 312 315 316 316 316 315 313 311 311 310 309 310 312 312 313 314 314 316 316 316 317 313 309 308 310 312 312 312 315 313 307 305 304 303 303 301 301 301 301 302 301 301 302 302 304
308 309 310 311 311 312 313 314 314 314 314 314 315 315 315 315 315 315 316 317 318 318 316 317 317 317 317 317 316 316 316 316 316 316 316 315 314 313 313 313 312 312 312 313 314 317 317 314 311 311 311 312 312 310 310 312 313 314 314 314 317 316 315 317 314 310 310 309 309 311 314 317 315 312 308 304 302 302 301 300 300 300 301 300 301 301 301 302
310 311 312 313 314 314 314 314 314 315 314 314 315 315 314 314 314 315 317 319 320 318 317 317 317 318 318 317 317 316 316 316 316 317 316 315 315 313 313 313 312 313 313 312 312 315 316 311 309 311 311 312 313 312 312 314 315 316 315 314 315 315 315 315 313 312 315 315 311 311 318 320 315 313 311 305 303 303 301 301 302 301 300 300 300 301 301 302
313 312 313 316 316 315 315 314 315 315 315 315 315 314 314 315 316 316 316 320 321 319 317 318 319 319 318 318 317 317 317 317 316 316 316 315 315 314 313 312 312 314 313 311 312 315 314 310 311 313 312 313 314 314 314 315 316 318 316 314 313 314 315 314 314 314 317 318 312 309 317 320 316 314 311 306 304 304 302 302 302 301 300 300 300 300 301 302
314 313 314 318 319 316 315 316 316 314 315 316 314 313 315 316 316 316 317 322 324 321 319 318 318 318 318 317 317 317 319 318 315 315 315 315 314 314 314 313 312 312 311 312 315 315 313 311 312 314 314 314 314 315 315 313 316 319 314 312 313 313 314 314 314 315 316 316 312 310 314 316 317 315 309 305 306 305 303 303 303 302 301 301 301 300 301 301
315 315 317 319 319 317 316 316 317 315 315 316 313 313 316 317 317 317 320 325 324 320 318 316 315 316 316 316 316 317 317 316 316 315 314 314 313 313 314 314 314 313 311 314 319 316 313 314 314 314 315 314 316 317 314 313 317 317 310 309 311 312 314 314 314 315 314 314 315 313 312 314 317 314 307 305 308 308 306 304 303 303 302 301 301 300 300 301
317 318 319 319 318 317 316 316 317 316 315 315 313 314 316 317 317 318 322 325 323 318 317 316 314 314 315 315 315 314 312 313 315 314 312 313 313 313 314 313 313 313 311 313 319 316 311 312 312 314 315 315 315 313 311 314 316 312 308 309 310 310 312 312 314 314 312 314 318 316 313 315 318 317 311 308 309 311 309 305 304 304 303 302 301 300 300 300
318 319 320 319 317 316 316 316 316 315 315 315 314 315 317 317 318 323 324 326 324 318 314 314 313 313 314 315 314 312 310 311 311 311 311 312 312 312 312 312 312 313 312 312 315 313 308 307 309 313 314 313 311 307 306 311 312 309 310 311 311 311 310 311 312 312 314 316 317 315 314 315 317 318 316 313 312 312 310 306 305 305 303 302 301 300 300 300
318 319 320 319 317 316 316 316 315 315 315 315 316 316 317 318 321 327 326 325 322 317 313 313 312 313 315 316 316 312 310 310 310 312 312 311 311 311 312 314 313 313 314 313 314 312 308 309 310 311 310 309 309 307 305 305 306 309 313 314 314 314 312 312 312 312 317 319 314 309 310 313 316 318 316 314 310 309 309 308 305 305 304 302 301 300 300 300
320 319 319 320 319 317 317 316 313 315 317 317 318 317 319 322 324 328 325 321 320 318 316 314 311 312 315 316 316 312 311 311 310 312 312 311 312 312 314 316 316 317 318 317 316 314 312 312 311 310 308 308 312 311 308 306 306 310 313 314 318 317 315 317 316 315 317 317 309 306 309 312 315 316 315 313 310 308 309 309 306 305 304 303 302 301 300 300
321 321 320 319 320 318 317 316 313 316 319 319 318 318 321 324 326 326 323 321 321 317 315 314 311 312 315 316 314 311 312 313 310 311 311 311 313 313 314 315 315 319 319 318 317 316 316 315 311 311 309 309 312 314 313 311 309 311 314 316 319 319 317 319 317 314 316 314 307 306 310 313 315 314 313 311 308 306 306 306 306 305 304 303 302 301 301 300
320 321 320 318 319 318 317 316 314 318 321 319 318 319 322 325 326 326 325 323 319 313 312 313 312 312 314 316 314 311 314 314 310 311 311 311 313 314 314 313 313 315 316 316 318 317 320 319 313 313 312 311 312 314 315 313 310 311 313 315 317 318 318 320 318 317 316 312 307 306 311 315 316 313 307 304 302 301 302 302 303 305 304 303 302 301 301 301
319 320 319 318 318 317 317 316 315 318 320 318 318 320 323 324 325 326 326 323 317 312 311 312 313 315 316 315 311 311 314 314 311 311 312 312 314 315 315 314 312 313 314 318 318 315 319 320 314 310 310 310 312 312 313 313 312 311 310 313 316 316 315 314 313 312 311 311 310 309 312 314 313 308 301 301 301 300 301 301 301 303 303 302 302 301 301 301
319 320 319 318 318 317 316 317 316 318 319 317 319 321 322 324 324 326 326 321 317 313 312 313 314 316 317 315 312 311 312 313 311 312 312 312 314 314 315 315 313 312 315 319 317 315 317 317 311 308 308 308 309 310 310 312 314 311 310 313 313 313 313 311 310 307 308 314 315 312 312 312 311 309 303 301 303 302 301 301 301 302 302 302 301 301 301 301
320 320 319 318 318 317 317 316 316 318 318 317 320 321 321 322 324 326 324 319 315 313 314 317 317 317 317 317 315 312 312 313 312 313 314 313 314 314 313 315 314 312 314 317 317 316 317 316 310 309 311 307 305 308 309 308 310 311 312 314 311 311 312 313 314 312 311 317 316 312 314 314 314 314 307 303 305 304 302 302 302 301 301 301 301 301 301 301
320 320 320 319 318 318 317 316 316 318 318 318 320 320 320 322 322 322 320 315 314 315 318 320 320 318 318 319 317 313 313 315 313 313 315 314 316 316 313 314 314 312 313 314 315 315 316 317 312 307 310 308 304 308 311 308 308 309 311 312 312 314 315 313 315 317 316 318 316 312 312 313 315 315 311 308 308 306 304 302 301 302 301 301 301 301 301 302
320 320 320 319 318 318 317 316 316 317 317 319 321 320 321 321 319 318 317 314 315 317 319 321 321 320 318 318 318 313 313 315 313 313 315 315 316 315 313 315 315 313 312 312 313 313 313 317 316 308 307 308 306 309 313 311 307 307 309 310 311 313 315 314 314 316 317 318 316 314 313 313 314 314 313 312 310 308 306 303 302 303 302 302 302 302 302 302
320 319 319 319 319 319 317 317 317 317 318 319 320 320 321 321 319 317 316 315 317 318 320 323 322 320 318 317 317 314 313 314 313 314 316 315 315 314 312 314 314 312 312 312 312 313 312 315 316 310 306 309 310 311 313 313 310 309 311 311 311 311 312 313 313 312 314 316 316 316 317 316 312 312 313 313 311 310 308 305 304 304 303 302 302 303 303 302
318 318 318 318 319 319 318 317 317 317 319 319 319 319 319 320 319 318 316 316 318 319 320 323 323 322 319 316 315 314 314 314 313 314 315 314 315 316 313 311 312 312 311 311 312 313 313 313 315 311 308 311 312 310 310 312 312 311 312 312 313 312 312 314 315 312 310 313 314 314 317 317 311 307 310 311 310 309 308 307 306 305 304 303 302 303 303 303
318 317 318 317 319 319 318 317 317 317 319 319 319 319 318 318 320 319 317 316 318 319 319 322 325 323 321 318 317 316 315 315 314 314 315 314 315 318 313 309 310 311 311 312 313 312 312 312 314 313 311 311 310 306 304 307 310 311 311 312 313 313 313 316 318 314 310 311 311 310 314 316 308 302 305 306 305 306 307 307 306 305 304 303 302 303 303 303
317 316 317 317 318 318 318 318 317 317 318 318 318 318 318 318 319 319 318 317 318 319 319 321 322 321 321 322 320 316 316 316 314 314 316 316 315 314 310 307 309 312 312 313 313 311 311 313 314 313 312 310 308 305 304 305 308 310 310 311 312 313 314 315 315 313 313 313 312 311 315 315 308 302 302 303 302 302 303 305 306 305 304 303 302 302 303 303
315 315 315 316 317 318 317 317 317 316 317 317 317 317 317 317 317 318 319 318 318 320 320 321 320 319 322 323 320 317 316 317 316 314 316 318 315 310 307 307 310 313 313 313 314 313 313 314 315 314 314 313 312 311 309 308 308 310 311 310 311 313 313 313 312 311 313 315 314 315 317 315 309 304 303 302 301 301 302 303 304 304 304 303 302 302 303 302
315 314 313 314 316 316 316 316 315 314 315 315 316 317 317 316 316 317 318 318 318 319 320 320 319 319 321 320 319 318 317 319 320 317 315 317 314 308 306 308 309 311 311 312 313 313 314 316 316 315 317 318 317 316 314 312 310 310 310 309 310 312 312 312 312 312 314 315 314 316 317 315 309 305 305 304 303 303 302 301 302 303 304 304 303 302 302 302
314 314 312 312 313 313 313 314 314 314 314 315 315 315 317 317 316 315 317 318 317 317 318 318 317 318 320 319 319 319 317 318 320 318 316 317 314 308 306 307 308 309 309 310 310 311 314 315 315 316 318 317 316 313 312 313 313 312 311 310 311 311 312 312 313 314 314 313 313 315 316 314 311 308 308 307 305 305 304 302 301 301 303 304 303 302 301 301
314 313 311 312 313 312 311 311 312 314 314 314 314 314 315 316 316 315 316 317 317 317 317 316 317 319 320 319 319 320 318 317 317 317 316 315 311 307 305 307 308 308 308 308 309 312 313 314 315 316 316 314 312 310 310 313 313 313 313 312 310 310 312 313 314 314 314 313 315 315 314 315 314 310 310 310 308 307 306 303 302 303 303 303 302 301 300 300
313 312 310 311 312 312 311 311 312 314 314 313 314 314 314 315 316 316 316 315 315 317 317 317 317 319 319 319 320 320 319 318 317 317 316 313 310 309 308 307 307 307 307 308 309 311 313 314 315 316 315 313 313 311 311 312 312 312 312 312 311 310 311 312 312 313 313 314 316 314 313 315 314 311 312 311 309 308 307 305 305 305 304 302 301 300 301 301
311 310 309 310 310 310 311 311 311 313 314 314 313 314 315 315 315 316 315 314 315 316 317 318 317 317 318 319 320 319 318 318 318 316 315 312 310 310 310 310 308 306 307 310 310 310 313 314 314 314 314 314 314 313 312 312 312 312 312 312 311 310 310 310 311 312 313 313 314 313 312 313 312 312 312 310 308 308 307 306 306 305 303 301 300 300 301 302
310 309 309 308 308 308 309 310 311 313 313 313 313 313 313 315 316 315 314 314 315 315 315 317 317 317 317 317 319 319 317 318 318 316 314 313 312 311 311 311 309 306 307 310 310 309 312 313 311 312 314 315 313 312 312 312 313 314 314 313 311 310 309 309 309 311 311 311 312 311 312 312 310 310 310 307 306 306 305 305 304 303 302 301 300 300 301 302
310 310 309 308 307 307 308 309 310 312 312 311 311 311 311 313 315 315 312 311 313 314 314 316 316 315 314 315 317 316 313 312 314 312 311 312 311 311 310 309 308 307 307 308 308 308 310 311 309 311 315 315 311 311 310 309 309 312 312 313 311 310 310 309 308 309 310 311 311 311 312 312 310 307 305 304 303 304 304 303 303 302 302 302 301 301 302 303
310 310 310 309 308 306 307 308 309 311 311 310 310 309 310 311 312 313 312 309 309 311 312 312 313 313 312 313 314 312 309 309 309 309 309 310 309 309 309 308 307 308 308 307 307 307 308 310 310 311 315 312 307 307 309 308 310 312 312 312 312 311 311 311 310 310 310 310 312 313 312 312 310 307 306 305 303 303 303 303 304 304 304 304 304 304 304 304
Wind_Speed
6 6 5 5 5 5 5 6 6 6 6 6 6 6 5 5 4 4 4 3 3 2 2 2 2 3 4 5 6 6 6 6 7 8 8 7 3 4 7 6 5 4 3 4 5 4 3 2 2 3 3 4 6 5 4 6 5 1 1 1 2 2 1 3 5 3 2 4 4 2 1 1 1 3 6 6 3 2 8 5 2 1 3 2 6 10 12 11
6 5 5 5 5 5 5 6 6 6 5 5 5 5 4 4 4 3 3 3 2 2 2 3 3 4 5 6 6 7 6 7 9 8 6 3 4 9 8 6 4 4 5 6 6 4 2 1 1 3 4 5 5 4 3 4 4 2 0 0 2 2 1 2 3 4 1 2 2 1 1 2 2 3 5 5 2 2 5 3 6 5 3 5 8 7 7 6
6 6 6 6 6 6 6 6 6 5 5 5 5 4 4 4 4 4 3 3 3 3 3 4 4 5 5 6 7 7 7 9 8 3 2 6 10 10 7 4 3 6 6 7 6 4 1 1 2 4 5 5 4 4 3 3 3 1 0 0 3 2 2 3 3 3 3 0 0 1 1 3 2 2 3 6 7 4 1 3 3 4 2 9 6 3 3 3
7 7 7 7 7 7 6 6 6 6 6 5 5 5 5 5 5 5 4 4 4 4 4 4 5 6 6 7 7 7 8 7 3 4 8 11 11 8 6 3 3 7 8 7 6 3 0 1 3 4 5 5 3 3 3 4 2 1 1 2 4 3 2 5 6 4 4 3 1 2 3 3 3 2 3 4 7 2 4 3 2 3 7 8 4 1 1 1
8 9 8 8 8 8 8 7 7 7 6 6 6 6 6 6 6 6 5 5 5 5 5 6 6 7 7 7 7 7 6 4 2 7 10 10 8 6 3 2 5 8 8 7 6 3 1 2 3 4 3 3 2 1 2 3 2 2 1 3 5 4 2 4 6 5 4 4 3 3 3 3 2 3 4 4 5 2 1 5 7 7 6 4 2 1 1 1
10 10 10 10 10 9 9 9 8 8 7 7 7 7 7 7 7 7 7 6 6 6 6 6 7 7 8 7 7 6 4 2 3 7 8 6 5 5 5 7 9 9 8 7 5 3 1 2 3 3 2 2 1 1 2 2 1 0 2 2 3 4 2 2 4 4 4 4 4 4 4 3 4 3 3 3 3 4 6 6 5 5 4 2 1 1 2 2
11 12 11 12 12 11 11 10 10 10 9 8 8 8 8 8 8 8 8 7 7 7 7 8 8 8 8 7 7 6 5 4 3 6 7 7 8 9 10 10 11 10 9 7 4 3 1 3 3 4 2 2 1 2 3 2 0 2 1 3 3 4 4 3 4 6 6 7 6 6 5 5 4 3 4 3 2 4 3 1 1 2 2 2 2 3 3 2
13 13 13 13 13 13 12 12 11 11 10 10 9 9 9 9 9 9 9 8 8 8 8 9 8 8 8 8 7 6 8 8 6 8 10 11 11 11 12 12 12 10 8 6 4 2 2 3 3 4 1 1 2 3 2 1 2 1 0 3 2 4 4 6 8 10 11 11 9 7 6 4 4 3 4 2 2 3 2 2 3 3 2 3 3 3 1 1
14 14 14 14 14 14 14 13 13 12 12 11 11 10 10 10 10 10 10 10 9 10 10 10 9 9 8 8 7 6 7 7 6 8 10 11 12 12 12 12 11 9 7 6 4 3 2 3 4 3 1 3 4 3 2 2 1 1 0 1 2 4 5 8 9 9 10 8 6 6 3 2 5 7 5 1 3 5 4 4 4 3 3 3 2 1 1 2
16 16 15 15 15 15 15 14 14 14 13 12 12 12 11 11 11 11 11 11 11 11 11 11 10 9 9 8 6 5 7 7 5 6 7 8 9 10 10 10 9 8 6 5 5 4 3 3 3 3 2 4 4 3 3 2 1 2 1 3 5 6 7 8 7 7 8 8 7 6 2 4 7 6 2 1 5 6 5 5 5 3 3 2 1 2 3 4
18 17 17 17 16 16 16 16 15 15 14 14 13 13 12 12 12 12 12 12 12 11 11 11 10 10 10 9 7 6 8 8 6 6 7 6 7 7 8 7 7 6 5 5 5 4 4 4 3 3 2 3 5 3 3 1 1 1 3 6 6 6 6 5 5 4 4 4 4 4 3 5 5 3 2 3 7 7 6 6 4 3 3 2 1 2 3 3
20 19 18 18 17 17 17 16 16 15 15 15 14 14 13 13 13 12 13 12 12 12 11 11 10 10 10 10 13 13 12 11 9 7 8 7 8 7 7 7 7 7 7 6 6 5 5 5 4 3 2 4 4 2 3 3 1 0 3 5 6 6 4 1 3 1 1 1 3 4 4 4 5 4 4 2 6 7 6 5 4 4 4 2 1 1 2 3
22 20 19 18 17 17 17 16 16 16 16 15 15 14 13 13 13 13 12 12 12 12 11 11 10 10 9 10 13 13 12 12 12 12 11 11 11 10 10 11 10 10 9 7 6 6 6 6 5 4 4 4 3 2 4 4 0 1 1 3 6 6 2 2 3 3 2 1 4 3 3 3 7 5 2 2 6 7 4 4 4 4 3 2 1 1 1 2
23 22 21 19 18 17 17 17 16 16 16 15 14 14 14 13 13 13 12 12 12 12 11 11 9 9 8 10 13 12 11 12 12 14 14 14 14 14 14 13 11 10 8 8 7 7 6 5 5 4 5 4 4 5 4 2 0 1 1 1 2 4 1 3 3 4 1 1 3 5 4 1 8 5 1 3 7 8 5 5 5 4 4 3 2 2 1 1
24 22 22 21 19 18 18 17 16 16 16 15 14 14 13 13 12 12 12 12 12 11 11 10 9 8 7 10 13 12 13 14 14 15 15 15 15 14 13 11 10 9 8 9 8 7 6 6 5 4 5 6 7 5 2 1 1 1 3 3 1 2 1 3 2 3 1 1 1 5 4 1 8 5 1 2 6 8 7 5 5 5 4 3 3 2 1 1
25 23 23 22 20 18 18 17 16 16 15 15 14 14 13 13 12 12 12 12 11 11 10 9 10 8 6 9 12 12 13 13 14 15 16 16 14 12 11 10 9 10 9 9 8 7 7 7 6 6 6 6 5 4 2 2 2 1 3 4 2 2 2 0 2 2 2 0 1 3 4 0 6 4 1 2 6 7 6 5 5 5 4 3 3 3 2 2
26 24 23 22 21 19 18 18 17 16 16 15 14 14 13 13 13 12 12 11 11 10 9 8 8 8 8 9 11 13 15 14 12 13 14 14 13 11 11 11 10 10 9 7 7 7 8 8 6 5 4 2 3 3 3 4 4 2 2 4 3 2 3 2 2 2 2 2 2 1 5 3 5 6 1 3 7 6 5 5 5 5 4 4 3 3 4 5
26 25 23 22 21 20 19 18 18 17 16 15 14 13 13 13 12 12 12 12 11 8 8 10 7 3 8 14 13 12 12 12 12 13 12 12 12 11 11 11 10 10 8 7 7 8 7 6 4 2 2 3 4 5 6 5 4 3 4 4 3 3 5 4 2 1 1 3 4 3 6 7 6 8 2 3 6 5 5 6 5 5 4 5 5 6 7 8
26 25 23 22 21 20 19 19 18 17 16 15 14 13 12 11 11 12 13 12 11 7 4 10 13 5 3 9 14 12 10 9 11 13 13 13 13 13 12 10 10 11 9 7 6 7 6 4 3 4 5 7 8 10 10 4 1 1 3 3 4 4 6 4 1 1 1 4 7 7 9 11 7 8 5 4 5 5 5 6 5 5 5 6 7 8 9 10
25 24 23 22 22 20 20 19 18 18 17 16 15 12 10 8 6 8 13 17 19 17 11 10 14 12 4 3 9 10 9 9 10 12 13 14 14 13 12 10 10 10 7 5 4 6 6 4 5 7 7 9 12 12 6 2 3 2 2 3 4 6 7 3 3 2 1 3 7 8 9 13 10 4 6 5 5 5 6 6 6 6 6 7 9 11 12 13
25 24 24 23 23 21 20 20 19 19 18 16 16 12 9 8 6 3 8 14 19 21 21 18 16 15 12 9 8 9 10 10 10 13 13 14 15 12 12 13 9 7 4 4 5 4 5 6 10 9 4 4 7 7 3 2 3 2 3 4 4 6 7 3 2 2 1 3 5 4 7 13 10 2 5 5 6 6 6 6 6 7 8 9 11 13 15 16
26 25 24 24 23 22 21 21 20 20 19 17 18 16 13 12 11 8 6 8 12 17 19 21 21 20 20 17 13 12 11 9 10 15 15 17 18 12 12 13 8 5 5 6 5 3 5 9 10 5 5 5 3 3 6 5 4 4 3 4 5 4 4 3 1 2 2 4 3 1 6 11 6 3 3 4 4 4 4 5 5 7 7 9 13 15 17 19
26 25 23 23 23 22 22 21 21 21 20 20 20 19 17 14 12 11 8 6 10 16 18 21 24 26 26 22 20 17 14 11 12 17 19 20 20 15 14 12 7 5 7 9 8 5 5 7 6 6 8 6 3 4 7 4 4 6 4 5 6 2 2 5 1 3 2 2 3 2 6 9 4 3 3 3 2 1 2 3 5 6 6 8 13 16 18 20
26 24 23 22 22 22 22 20 20 21 21 22 22 20 17 14 12 10 7 5 7 11 17 21 23 26 28 24 21 20 19 17 14 17 22 24 21 15 13 11 6 6 8 12 11 9 5 1 2 8 8 8 5 5 7 5 5 7 7 8 8 4 6 6 1 2 2 2 2 3 7 9 6 6 4 4 3 2 1 2 4 6 7 9 13 16 19 20
25 23 21 21 21 20 20 19 22 22 22 23 21 18 16 14 10 6 4 4 5 6 11 16 18 22 26 23 19 18 18 18 17 17 22 27 24 14 8 9 7 7 10 10 8 10 4 4 6 8 7 8 7 5 8 8 6 5 8 12 12 9 8 5 2 1 4 4 2 2 6 5 2 5 4 4 4 3 2 3 4 5 8 11 12 15 19 22
24 22 19 18 19 18 18 19 23 23 23 22 18 15 15 12 8 4 1 2 5 4 5 10 11 12 17 19 20 17 9 11 17 19 21 27 27 15 7 7 4 4 7 7 3 5 2 4 6 6 6 8 7 6 8 8 6 4 3 8 12 10 6 5 5 4 4 3 1 1 6 4 0 2 3 5 4 4 4 5 7 8 10 12 14 17 21 23
24 22 19 19 21 21 21 20 23 24 22 18 16 16 15 12 9 4 2 4 7 6 8 8 9 10 11 15 23 18 3 5 13 17 22 27 25 15 8 7 4 2 5 5 3 2 4 6 4 5 7 7 7 6 6 9 7 3 2 2 7 8 7 8 8 6 3 2 0 3 4 5 5 1 4 5 4 5 7 8 9 12 13 14 16 19 23 24
24 21 22 24 25 27 26 22 22 25 20 14 16 19 16 15 12 6 2 5 3 6 6 6 9 11 13 18 24 14 2 7 8 10 22 26 21 13 8 8 7 6 7 6 6 1 4 7 8 9 7 6 6 2 7 12 6 1 2 1 3 4 5 6 6 5 2 2 4 5 5 4 7 3 4 4 5 7 10 12 12 15 17 17 18 21 24 25
24 24 27 27 27 28 27 23 21 21 17 12 16 20 19 17 11 5 1 5 2 6 4 7 10 9 13 17 16 7 4 4 1 7 18 19 18 9 3 7 6 6 5 4 4 0 2 2 5 8 7 6 3 3 3 9 4 3 5 5 6 5 4 3 3 3 1 4 8 8 9 5 6 4 5 3 5 9 10 11 13 18 19 18 20 24 25 26
24 27 29 27 27 28 28 28 24 18 16 17 19 22 22 17 8 3 5 5 2 4 4 8 8 8 15 14 6 3 3 1 4 12 12 10 12 6 4 7 5 5 2 3 2 1 3 1 1 4 4 3 6 5 3 0 4 9 7 6 7 5 4 3 0 1 2 6 6 5 9 8 5 4 7 5 2 4 8 10 12 17 20 20 22 26 27 27
26 27 29 29 29 29 30 33 28 20 20 22 23 26 22 10 2 6 8 2 0 3 5 5 4 8 15 10 4 4 3 2 7 12 8 6 8 6 6 7 4 3 2 3 3 1 1 2 2 3 5 7 8 5 5 4 4 6 3 4 5 3 2 2 2 2 5 5 1 2 3 7 7 4 4 3 2 4 8 11 15 19 21 23 25 28 29 28
30 29 31 33 33 31 33 35 27 22 23 24 28 29 17 4 3 8 5 2 1 4 5 4 4 7 10 4 2 5 3 2 6 7 5 5 6 8 7 6 6 5 4 7 5 1 2 4 2 3 6 8 6 5 5 2 2 3 4 6 5 3 3 3 3 3 6 4 1 2 1 5 8 6 5 2 3 4 4 7 15 23 25 25 27 30 31 30
34 32 32 36 36 35 37 33 25 25 25 28 31 24 9 4 9 11 7 3 1 2 4 4 4 6 8 5 2 4 2 2 5 4 2 3 5 7 5 3 4 2 1 6 6 3 3 2 3 4 4 9 11 7 5 4 5 7 7 8 7 5 4 5 4 3 4 1 2 1 2 3 5 5 6 3 2 3 2 3 11 22 27 28 31 33 32 31
36 33 35 38 38 37 37 34 29 27 27 31 28 14 5 9 11 10 10 6 1 3 3 4 7 7 7 4 2 5 2 1 6 5 3 4 5 7 6 6 7 2 2 4 4 6 5 3 6 7 4 12 14 6 3 6 7 6 3 3 5 4 4 4 4 3 2 2 2 1 2 4 3 1 1 2 3 2 3 5 10 18 24 29 33 35 33 33
36 34 36 37 39 39 38 37 34 29 31 32 19 7 8 12 10 8 9 6 2 2 3 4 8 8 6 2 1 5 3 2 6 5 4 6 5 7 8 8 10 6 4 5 3 4 6 4 3 3 3 12 12 3 5 7 6 3 1 1 3 3 2 1 1 0 2 0 2 4 3 3 2 2 2 0 0 2 3 5 9 17 24 29 32 34 35 34
36 36 38 39 42 41 39 41 37 33 35 29 12 8 13 11 5 5 6 6 6 7 8 5 4 5 5 3 3 7 4 1 6 5 4 4 4 5 5 5 11 11 8 7 3 3 4 2 2 3 2 5 5 3 4 2 4 4 3 5 2 1 2 2 1 2 1 5 3 4 5 3 1 2 3 2 2 3 4 5 9 15 23 29 31 35 37 36
38 40 42 45 47 42 41 44 40 39 39 24 9 10 10 8 5 4 4 6 9 11 10 5 6 7 7 5 6 9 5 3 6 6 4 4 4 7 6 5 10 14 13 8 3 3 4 1 1 2 2 1 1 4 4 2 2 5 5 6 3 2 1 1 3 1 2 6 3 4 8 6 4 3 2 4 5 6 6 8 9 13 20 26 32 37 39 38
43 44 46 50 49 44 45 45 43 43 35 16 11 13 8 6 7 5 6 8 9 11 8 7 8 7 8 7 6 10 9 6 8 6 5 5 4 8 11 6 9 17 19 12 3 2 4 3 1 1 1 2 2 4 4 1 1 1 2 4 3 2 4 4 4 3 4 6 4 4 6 7 8 6 4 7 10 11 10 9 10 14 20 25 31 38 40 39
48 41 42 51 52 48 46 46 49 47 26 8 12 14 7 7 7 7 13 11 7 9 9 9 8 4 7 8 5 9 11 8 10 8 6 6 4 7 13 9 8 15 21 14 3 1 3 4 2 1 1 3 3 5 7 6 2 2 1 3 1 3 3 3 3 2 3 5 4 2 3 4 7 8 9 12 13 13 13 10 11 18 23 27 34 41 43 43
45 28 25 42 50 47 46 49 49 37 15 7 13 10 5 7 6 10 19 13 5 6 7 7 8 5 5 6 3 6 8 7 9 7 6 7 6 5 10 10 5 8 14 12 5 1 2 4 3 2 1 3 5 6 7 9 8 5 6 7 4 2 0 2 2 1 1 4 4 4 5 3 3 4 9 12 10 11 14 12 12 18 24 31 40 47 48 46
37 16 13 30 42 47 49 42 29 17 8 9 13 9 6 6 5 11 19 14 5 4 3 3 7 6 5 6 3 5 6 6 8 7 5 8 7 4 8 10 7 8 8 5 5 5 3 3 4 4 4 6 4 0 1 2 4 5 7 10 10 7 4 4 5 2 0 3 2 2 6 3 2 0 2 3 1 5 12 12 11 19 29 36 43 48 49 48
29 12 11 24 35 50 50 26 11 11 10 12 11 8 6 6 5 10 15 12 5 2 2 2 3 4 4 5 4 5 7 5 8 7 5 8 8 3 5 10 12 16 11 3 3 3 2 1 3 3 3 3 1 2 1 2 2 2 3 5 7 7 7 7 7 3 3 2 0 1 4 3 1 2 2 1 2 1 7 11 10 17 29 37 40 43 45 46
19 10 13 21 33 50 42 14 8 12 8 11 11 7 6 6 5 8 10 10 5 2 3 2 2 4 4 3 4 6 7 6 7 8 3 4 5 1 5 11 15 15 10 3 3 5 3 2 4 2 0 1 1 0 0 1 1 3 4 3 4 6 5 3 3 2 4 5 4 2 5 3 1 0 1 1 2 3 6 12 13 14 22 31 36 40 43 44
11 8 15 26 40 48 30 8 10 13 8 8 9 9 8 5 6 9 8 9 6 3 4 3 3 4 2 2 4 7 8 7 7 7 3 2 4 3 7 16 17 11 6 4 7 9 6 3 5 5 2 3 3 3 3 2 3 5 4 3 6 5 3 2 1 2 4 7 9 6 8 3 2 1 1 1 3 3 5 11 14 14 18 25 33 38 43 44
9 5 11 26 41 41 21 9 14 14 11 11 9 12 12 5 7 14 12 10 8 5 4 4 5 5 3 3 4 5 8 6 3 5 3 2 2 2 5 15 15 8 7 7 11 13 7 3 6 8 8 8 7 5 5 5 4 3 2 5 9 9 9 5 3 4 5 5 10 10 9 2 2 1 3 3 3 3 5 9 15 18 19 24 32 38 41 43
8 4 5 12 23 23 12 10 15 14 13 15 10 10 14 9 6 12 14 13 12 10 6 2 4 6 4 5 6 6 9 6 1 4 4 4 2 1 3 9 9 7 8 11 16 13 3 2 7 10 8 6 3 1 0 3 7 9 8 9 10 12 13 9 5 6 5 4 7 13 9 5 4 4 6 6 5 6 7 8 12 19 23 27 32 36 39 42
7 4 5 4 8 10 5 5 10 12 14 17 10 6 15 15 5 7 13 12 13 15 7 2 4 8 6 9 9 7 9 8 3 5 5 4 3 2 3 4 5 8 8 8 12 9 2 5 10 10 7 3 3 2 1 1 6 11 12 12 11 12 14 13 11 9 6 4 10 11 8 9 10 8 9 9 6 5 6 9 15 23 28 28 29 32 35 38
7 5 10 10 4 3 6 7 8 10 12 15 10 6 13 17 10 9 10 6 9 16 9 1 7 13 12 13 10 6 8 8 6 6 4 4 4 3 2 2 1 6 5 3 5 4 2 6 7 7 9 5 4 2 0 1 1 4 8 12 13 14 15 15 16 12 8 9 15 8 11 13 12 8 10 10 10 12 14 17 22 26 29 28 26 29 33 37
9 5 9 14 6 2 7 9 8 9 11 11 9 8 12 17 17 10 5 3 5 10 11 9 10 12 12 12 10 8 9 8 8 7 5 5 6 4 3 1 1 3 3 2 1 1 2 3 2 3 7 5 4 4 2 2 1 3 5 9 9 10 11 13 15 15 13 14 15 7 6 12 7 6 7 9 12 16 16 16 18 21 24 25 25 28 32 36
11 8 8 11 6 3 5 6 7 7 8 7 7 7 8 13 16 9 4 5 6 6 10 12 11 10 9 10 11 10 8 6 6 7 7 8 6 4 3 3 3 4 3 2 1 0 2 3 4 4 4 5 5 6 4 4 5 6 10 13 7 5 6 10 11 11 10 11 12 10 11 11 4 7 5 5 8 10 10 12 16 18 19 21 23 26 29 32
15 13 12 11 4 3 5 5 6 6 4 4 5 5 7 11 12 8 2 1 3 4 8 11 9 6 4 7 9 6 5 8 7 6 7 7 6 5 3 3 6 6 3 3 3 1 2 3 4 4 5 4 3 5 5 4 3 9 17 16 10 7 8 10 9 9 10 11 13 13 13 11 4 6 5 5 7 8 7 11 15 15 15 17 20 24 27 30
17 15 15 12 4 3 4 3 5 7 5 5 6 5 7 8 7 7 3 1 2 5 7 9 8 5 3 5 7 8 12 14 12 10 7 4 4 4 4 8 12 9 5 4 3 2 4 4 3 4 5 1 1 3 5 5 1 9 12 10 14 14 13 11 10 13 15 13 12 11 10 8 3 6 6 4 6 8 10 13 15 14 15 17 19 22 25 29
Wind_Direction
185 186 189 191 192 189 187 187 189 184 179 179 177 176 176 176 179 180 178 181 189 210 241 273 304 318 326 325 326 328 329 325 319 318 314 308 297 158 145 129 110 74 39 11 3 358 355 1 21 40 53 72 66 63 63 42 30 45 185 197 134 161 157 161 164 149 104 106 133 134 321 264 307 315 328 318 256 276 313 342 33 203 182 279 307 305 306 311
199 199 199 201 202 204 201 200 202 199 196 193 192 190 192 197 202 204 202 212 227 244 269 290 303 313 318 318 322 324 326 325 318 313 305 276 157 144 139 122 79 32 8 357 356 349 335 328 59 72 78 84 71 64 67 39 28 54 158 298 126 130 104 143 140 142 167 93 111 151 196 252 301 316 331 315 284 323 326 74 115 133 129 316 311 305 308 316
223 219 217 218 215 215 214 214 215 213 211 207 208 207 210 218 222 229 229 237 249 261 278 291 300 307 311 314 320 324 332 330 319 303 179 153 147 142 137 120 51 10 356 352 350 341 308 184 105 93 91 92 78 80 76 34 23 67 231 72 120 132 137 186 182 170 212 262 111 200 222 259 260 274 305 312 304 303 31 78 116 135 298 308 316 323 325 337
239 236 235 234 230 228 225 225 225 224 225 222 222 222 224 229 234 241 243 249 258 265 277 288 296 303 308 314 318 326 337 330 304 162 148 146 147 146 142 128 7 349 346 348 347 345 225 173 120 105 100 94 69 88 74 22 27 121 297 58 113 160 181 179 192 190 210 228 214 223 260 246 204 258 278 293 296 272 102 48 320 296 297 303 317 328 337 357
248 247 245 244 241 238 236 234 232 231 232 234 234 235 236 237 242 247 251 255 262 270 277 287 294 300 305 310 315 327 336 330 142 150 155 154 158 165 185 264 315 327 336 344 346 344 188 160 123 111 97 96 62 89 85 36 58 130 89 62 114 171 190 146 180 196 195 208 205 215 248 241 222 267 250 247 281 318 356 296 289 291 286 291 303 297 300 251
251 252 250 250 249 245 243 242 240 238 235 238 240 243 245 246 248 251 255 260 266 273 277 284 289 294 299 304 307 315 316 307 142 156 166 177 198 222 253 277 299 311 322 330 337 336 175 157 134 115 91 100 53 47 101 94 66 169 122 126 164 196 239 153 194 223 204 206 210 225 250 240 236 246 197 208 267 295 299 286 279 271 254 260 280 276 272 265
255 254 253 252 252 251 248 247 245 244 240 240 243 245 248 251 253 256 260 265 268 273 277 282 286 289 293 296 300 298 282 274 218 199 213 238 251 258 267 277 289 299 310 315 317 313 186 167 148 129 118 115 136 117 117 123 185 293 131 149 198 216 240 243 242 260 254 250 250 254 258 235 231 220 150 141 242 267 292 301 215 211 213 237 235 255 260 262
260 259 256 254 254 253 251 250 249 248 246 245 245 246 249 253 256 259 264 268 271 275 278 281 282 284 287 290 296 291 275 270 252 240 245 251 256 260 265 274 283 292 299 300 294 276 210 195 175 151 127 86 139 144 135 176 173 233 167 136 194 224 245 273 275 277 273 271 269 255 248 240 225 174 129 111 221 208 166 146 160 168 182 215 225 235 251 339
264 263 260 256 255 253 252 251 250 250 249 248 248 248 250 254 257 261 265 269 273 275 277 278 279 281 283 286 291 285 276 278 264 250 249 249 251 255 260 267 274 281 285 279 268 253 225 211 196 183 176 127 142 141 155 230 195 133 128 165 245 255 276 287 281 279 274 270 267 245 235 207 164 144 113 94 208 181 170 183 174 178 200 217 224 193 63 44
265 265 262 259 255 253 252 251 250 250 250 249 249 249 251 253 257 261 265 268 271 272 274 274 276 278 280 282 281 276 273 276 269 257 253 247 244 247 252 258 263 270 274 265 252 241 218 208 189 180 167 141 143 134 158 225 11 101 333 286 268 280 292 289 278 275 271 261 251 236 189 120 158 162 97 150 188 170 172 194 190 199 232 265 331 26 33 35
265 265 262 258 254 252 250 249 250 249 249 249 248 249 251 254 257 260 263 266 268 269 271 271 275 276 278 276 254 252 272 272 267 258 251 244 237 238 242 247 252 259 263 257 246 233 221 209 181 177 164 143 145 136 165 172 57 89 322 290 264 282 287 289 291 280 273 254 226 209 149 123 173 186 68 141 178 168 181 201 198 217 242 269 312 11 14 18
265 264 260 256 253 251 250 249 249 248 248 247 248 248 249 253 256 258 261 263 265 266 269 272 276 275 276 270 254 255 268 266 260 253 244 243 242 239 238 241 249 262 264 258 244 229 221 196 179 195 163 144 153 151 162 147 124 21 348 303 280 281 264 1 354 309 299 244 148 155 166 155 160 132 87 145 185 175 196 213 213 229 229 230 256 347 349 351
264 264 259 253 249 249 249 247 247 247 246 246 247 246 247 251 253 255 257 259 263 266 271 273 274 273 268 264 262 262 262 258 255 251 245 244 244 243 245 251 258 262 257 245 230 212 202 184 178 187 158 148 155 151 132 116 205 244 89 314 300 283 237 70 358 312 294 229 155 169 231 171 141 120 82 216 195 188 212 226 223 222 218 227 245 301 331 339
261 262 257 250 245 244 245 245 244 243 244 245 244 244 246 248 249 253 255 259 264 267 269 269 267 265 255 257 265 263 257 253 250 247 247 245 245 248 252 256 256 250 238 224 210 200 193 181 181 178 160 148 137 141 132 103 27 303 237 236 290 285 200 97 7 322 281 179 163 210 269 192 151 139 346 235 197 199 218 223 214 204 205 225 233 260 292 336
257 258 254 248 243 240 241 240 239 239 239 240 240 242 244 246 249 253 257 261 263 265 265 263 260 254 249 259 264 261 254 248 245 244 245 245 246 248 249 246 237 224 214 208 202 201 193 181 177 147 130 135 141 151 173 189 103 17 269 231 179 257 237 107 57 356 323 58 136 222 263 164 158 155 356 220 185 191 204 199 194 195 197 211 222 232 232 171
254 251 248 248 243 238 238 236 234 233 233 234 236 239 242 246 251 253 258 260 260 261 258 256 252 242 246 260 256 255 251 242 242 243 242 243 242 240 235 225 215 209 205 203 202 200 189 175 158 133 132 140 156 181 220 237 215 159 248 256 216 226 263 87 108 55 352 308 160 233 267 154 148 153 42 160 171 178 182 175 178 190 190 197 209 203 181 159
250 247 245 246 244 241 236 232 231 228 228 230 233 239 243 247 250 253 254 254 254 253 250 248 245 241 246 253 250 249 247 240 238 237 235 236 233 226 218 205 199 199 195 191 186 182 176 163 148 141 141 145 169 186 217 242 239 189 201 254 252 229 258 277 150 117 358 254 219 238 267 269 137 139 112 155 168 172 165 162 168 179 185 186 183 171 166 164
245 244 242 242 243 241 237 232 229 226 228 230 234 239 241 245 248 249 248 247 245 244 247 233 217 244 247 235 236 241 242 236 232 231 226 223 215 205 204 202 198 188 171 166 167 166 163 148 151 178 156 170 178 183 213 239 251 215 191 225 244 224 238 252 233 141 45 249 240 227 251 256 159 143 142 161 169 172 161 163 168 170 172 167 164 166 165 164
240 241 240 239 240 238 236 233 229 228 229 229 233 236 238 244 247 250 247 237 221 207 233 214 199 209 250 222 226 232 234 224 221 224 218 209 201 194 197 201 190 174 159 165 171 161 158 138 160 217 200 191 192 201 218 236 354 197 182 223 247 244 249 245 203 61 11 259 248 242 252 259 219 158 146 157 162 167 167 168 171 167 163 159 158 162 162 160
237 239 239 237 237 234 231 231 230 231 230 230 229 227 231 232 237 252 239 231 228 226 235 227 211 216 227 212 214 214 213 211 213 215 211 205 197 189 189 181 171 172 172 174 164 160 179 187 203 220 212 199 202 207 217 66 77 124 167 228 242 250 264 249 127 91 25 263 251 245 257 263 252 170 136 159 166 172 182 180 177 168 161 159 157 156 154 152
235 238 238 237 234 230 228 226 227 230 231 230 224 218 215 210 209 244 234 238 245 241 242 245 234 226 232 236 221 211 206 205 209 208 205 200 190 183 180 171 164 180 180 119 109 143 185 214 225 224 204 187 203 199 178 124 157 198 225 238 242 242 258 265 120 104 138 245 254 234 254 260 251 160 121 166 185 191 194 188 182 171 163 160 156 154 149 145
233 235 235 235 233 228 225 223 224 227 227 224 221 219 220 222 227 242 257 268 262 250 243 242 239 234 235 234 228 221 205 197 207 204 199 190 187 187 174 174 188 183 144 126 129 152 199 230 233 202 98 95 111 161 193 212 211 215 223 243 252 242 261 266 167 116 166 230 257 219 257 262 244 123 125 175 196 207 207 207 191 172 166 163 158 152 147 143
230 232 232 232 232 227 224 223 221 222 222 221 223 223 225 230 233 242 261 283 273 258 245 238 236 234 232 231 228 220 205 206 211 203 198 189 187 192 177 177 195 157 149 181 191 189 202 239 232 147 127 140 129 157 186 202 220 219 213 232 244 214 233 256 182 119 181 231 297 319 277 267 226 157 167 164 185 211 213 228 202 182 176 169 162 153 146 145
228 228 228 227 228 225 222 219 217 220 222 222 225 224 225 230 231 245 259 273 277 258 246 241 235 233 231 229 228 218 213 222 218 206 202 192 182 186 186 181 169 155 185 198 204 213 212 345 140 146 159 183 167 157 180 202 225 217 214 230 244 223 223 248 65 103 212 207 250 291 284 269 225 205 194 141 152 182 187 227 204 193 186 171 164 155 149 148
227 226 225 223 224 222 218 214 213 218 221 223 225 219 218 222 222 240 255 270 269 240 245 239 229 233 230 225 223 212 215 226 223 214 205 196 185 173 175 179 178 196 196 188 206 234 234 89 127 146 165 190 184 184 195 207 232 227 214 224 241 244 232 225 137 185 253 229 191 248 267 266 183 205 198 142 160 171 167 214 206 197 189 177 167 160 155 151
227 225 219 218 225 217 205 210 216 218 219 223 220 206 208 207 195 204 182 289 261 193 198 212 208 220 216 212 203 192 212 231 221 216 202 197 193 179 166 168 187 220 171 155 210 252 215 130 136 151 165 178 195 219 197 192 231 249 218 218 231 240 229 197 180 198 252 259 103 231 252 259 177 178 153 142 175 177 178 209 204 196 194 188 179 170 162 155
229 225 213 215 224 213 199 209 218 215 215 220 208 193 194 185 165 154 130 280 256 165 147 175 181 187 191 191 182 175 203 191 192 205 194 193 195 191 197 172 163 199 137 140 220 231 151 155 160 169 167 173 201 225 182 177 217 243 42 212 209 210 208 198 194 209 250 323 128 197 226 267 265 188 105 144 180 192 198 206 204 199 197 193 186 176 168 160
230 220 211 213 222 218 207 209 216 212 211 209 195 186 177 166 156 136 160 266 247 127 134 160 160 173 172 171 173 169 113 141 158 192 186 188 189 191 220 199 172 166 155 180 217 213 143 173 189 180 178 197 205 212 160 176 211 278 51 81 156 179 195 186 198 221 258 307 241 196 162 251 251 194 117 154 197 221 209 198 198 198 195 192 188 181 172 164
224 215 216 217 222 222 212 209 213 211 205 188 182 180 165 157 150 119 213 252 171 109 116 148 147 156 151 156 175 173 114 132 103 169 173 182 186 183 216 195 166 143 157 230 237 345 58 193 197 178 187 203 173 41 156 188 200 138 127 100 92 82 89 131 210 210 162 248 244 198 174 227 259 196 163 169 221 227 204 191 195 194 191 191 188 183 176 168
220 217 222 221 219 215 212 214 211 198 186 177 175 171 159 154 145 150 217 234 178 106 105 145 148 149 147 149 183 196 135 83 102 139 151 169 180 171 121 143 137 131 149 301 272 75 48 60 172 189 200 145 109 63 28 103 134 140 142 109 96 86 89 99 188 165 219 245 243 190 183 219 263 212 189 191 222 193 168 176 189 188 189 191 189 185 179 173
222 218 218 221 218 210 211 215 207 185 175 173 168 163 158 149 135 200 209 240 34 126 122 145 143 152 160 160 176 170 143 82 135 148 149 154 167 151 131 141 135 141 190 249 225 136 89 168 172 184 161 118 107 87 46 48 130 153 158 137 128 114 131 158 137 179 243 240 215 56 177 221 239 221 193 175 115 141 165 177 182 183 187 190 189 187 182 176
226 222 218 222 224 218 217 217 202 179 174 171 167 163 156 143 231 221 207 74 138 184 153 153 167 174 174 159 114 148 135 131 162 168 157 155 175 175 182 188 166 166 220 215 198 141 196 199 151 138 160 159 145 110 85 78 187 203 165 160 182 175 169 218 192 198 243 230 74 35 142 229 240 243 257 242 142 169 190 183 181 181 183 187 189 188 184 178
227 227 225 225 225 223 222 220 201 180 176 170 167 165 155 191 216 218 206 165 189 163 112 120 135 156 164 153 141 152 121 130 167 177 156 156 190 194 216 241 187 206 241 187 185 184 206 217 150 158 183 190 184 164 162 176 185 194 177 174 193 179 186 222 197 223 260 216 64 41 175 239 253 252 266 279 99 134 155 174 184 180 180 184 187 188 184 178
224 227 228 225 227 224 222 220 202 185 178 171 167 166 181 216 217 208 199 196 24 56 87 112 116 130 163 175 170 161 149 168 166 163 161 166 189 203 215 224 214 246 68 156 192 190 214 255 177 174 165 178 191 199 153 141 162 190 183 183 202 190 203 218 201 231 263 118 112 118 184 220 210 158 297 333 29 70 145 170 180 177 180 184 186 187 185 181
222 226 227 224 226 223 220 217 203 189 180 172 168 176 194 214 221 205 193 176 133 105 98 112 126 141 183 197 170 191 211 215 164 158 172 178 194 201 198 201 199 191 156 183 201 179 223 267 162 132 119 166 183 186 99 121 155 184 75 179 229 213 184 166 285 309 48 17 190 179 224 245 204 134 119 72 348 124 134 160 170 175 181 184 186 188 187 184
223 224 224 222 222 219 216 212 201 193 186 174 172 206 203 217 212 177 183 157 147 143 124 129 148 155 188 183 189 210 226 172 159 171 196 197 231 214 193 198 191 191 190 184 170 164 207 265 91 75 74 166 180 143 124 148 154 148 176 193 206 354 93 129 206 80 69 269 227 176 227 249 209 213 156 138 195 171 157 170 172 175 181 186 190 191 190 187
219 220 221 221 219 216 212 207 198 195 192 181 191 213 209 228 203 164 169 141 138 142 140 178 191 171 186 188 194 194 182 154 166 185 188 176 232 202 188 223 196 196 209 207 212 203 193 201 122 144 155 157 128 117 95 5 110 138 189 181 130 18 354 210 243 161 185 255 251 186 222 219 197 216 144 153 199 201 193 185 177 178 183 190 196 196 193 190
214 216 219 221 219 213 209 203 196 197 195 185 208 216 211 219 204 177 161 143 140 150 167 211 192 175 189 188 186 180 176 175 169 181 186 180 226 182 171 205 200 198 209 212 233 221 200 209 151 126 161 123 139 152 126 48 336 94 194 161 130 220 204 180 225 227 201 242 259 198 217 225 210 201 164 184 203 202 194 181 179 189 191 194 198 198 196 193
210 207 217 222 217 212 209 201 195 197 198 189 210 213 208 205 203 183 172 159 148 167 192 214 195 190 197 181 160 166 181 185 163 174 198 187 207 175 171 192 198 197 201 195 193 161 190 229 199 111 2 120 155 206 189 174 162 16 163 166 225 266 211 172 194 223 212 233 257 226 211 220 211 196 179 191 202 192 180 178 192 198 196 196 197 197 197 196
205 200 219 220 214 212 207 199 195 197 200 204 209 209 190 187 192 189 183 174 168 187 198 204 190 186 185 176 151 160 185 195 171 184 212 183 185 189 185 191 178 183 188 185 202 192 156 227 213 117 88 178 182 206 204 182 168 170 179 179 187 194 239 259 220 165 229 238 244 259 261 221 177 192 188 192 197 183 177 183 195 199 198 198 199 198 197 196
201 203 225 212 211 210 200 193 195 200 206 208 212 219 203 179 169 185 188 188 199 204 180 175 188 185 168 170 179 166 175 190 184 195 215 194 203 216 192 189 162 143 151 171 213 208 174 205 190 149 182 203 199 254 299 227 186 186 189 184 184 175 155 207 220 171 194 255 225 252 276 257 131 54 217 180 178 180 183 187 189 195 200 202 202 201 199 197
201 211 213 198 204 200 189 185 200 203 210 215 215 217 187 167 168 180 188 196 208 198 161 154 184 184 170 166 171 167 166 177 189 197 213 207 212 218 180 180 163 151 148 153 198 166 100 171 185 173 194 204 294 16 338 308 322 290 243 201 188 184 173 197 220 179 149 229 58 45 281 277 102 27 359 11 338 266 200 200 201 200 202 205 205 203 201 200
197 204 189 183 196 193 183 182 210 200 218 224 220 217 172 165 181 173 183 196 194 164 177 173 161 186 192 160 148 169 175 182 190 187 198 213 206 153 148 159 153 152 155 153 160 142 113 173 195 192 131 105 76 97 178 355 346 241 246 219 201 208 195 205 220 150 176 194 152 179 253 251 139 45 346 286 274 269 217 207 205 204 205 207 206 204 203 203
196 187 169 173 186 188 183 181 196 202 221 207 211 222 200 190 192 183 189 195 183 161 177 194 193 188 190 145 156 180 185 191 199 188 178 196 180 115 145 163 160 161 185 185 161 164 170 183 186 185 185 181 187 199 205 197 204 230 228 186 208 210 131 81 96 131 233 199 163 206 247 222 130 196 262 238 230 237 222 209 205 204 207 209 207 204 203 204
183 176 178 181 184 186 194 207 192 198 211 200 206 216 209 215 203 199 203 198 191 180 172 197 193 168 159 155 158 186 195 199 199 182 180 191 168 86 150 177 178 181 199 175 149 158 178 189 181 194 205 203 202 211 212 182 167 220 219 177 204 198 169 175 188 196 230 177 162 212 241 195 98 247 240 221 203 222 218 206 207 207 211 212 208 205 204 205
168 168 198 198 196 198 222 232 201 193 200 202 209 210 208 218 212 201 202 202 204 199 184 176 166 157 164 180 180 196 207 215 189 162 185 187 180 45 144 177 185 178 172 162 153 153 166 222 201 216 226 209 188 211 274 135 160 197 204 184 195 201 191 194 207 210 200 145 198 225 228 230 218 195 221 219 192 214 216 196 202 208 211 213 208 205 204 206
172 181 173 190 219 217 247 258 210 197 196 198 196 192 205 212 206 188 200 206 202 195 192 43 164 184 188 187 198 207 197 200 185 166 180 167 130 56 101 136 157 159 151 162 166 153 130 216 210 222 234 199 114 80 348 159 183 204 208 197 196 198 195 200 216 213 148 145 243 231 187 225 229 183 202 216 191 212 218 194 202 208 209 209 206 204 205 208
182 191 185 187 198 213 222 224 201 192 195 196 195 200 205 207 205 197 198 201 190 188 191 229 203 205 198 187 197 199 181 191 197 182 170 146 135 118 96 59 127 163 148 163 182 151 155 217 211 211 219 202 123 125 219 93 168 222 215 210 206 196 192 200 215 215 170 199 246 223 163 216 233 185 195 210 195 205 208 201 206 208 208 207 203 203 206 209
176 162 186 195 199 264 227 207 182 187 194 190 197 213 206 203 206 201 165 143 184 192 194 207 212 209 202 194 191 188 185 189 198 194 166 145 156 150 133 108 239 190 162 143 168 128 167 207 181 185 221 225 172 163 159 146 234 289 251 232 219 198 196 204 213 218 210 224 251 253 206 235 234 162 193 214 208 211 209 205 209 210 210 206 201 203 207 211
182 173 168 180 195 262 225 192 173 190 197 187 198 215 212 207 204 193 146 167 186 191 199 207 205 193 194 197 195 197 194 176 182 191 167 152 168 177 169 170 163 160 155 139 115 345 203 181 140 143 217 229 188 167 165 183 208 246 252 243 219 164 192 217 224 229 229 242 260 267 261 258 216 143 171 200 201 207 205 204 208 211 210 204 202 205 210 214
198 190 173 163 166 212 203 191 186 197 207 199 196 191 204 215 202 177 144 214 182 176 196 199 186 161 160 188 195 191 140 113 108 128 145 147 156 161 153 144 144 142 135 137 142 164 208 174 142 158 203 214 173 157 160 148 181 248 254 241 207 182 206 212 215 222 220 230 242 245 252 257 220 145 157 173 179 188 195 202 207 209 208 206 209 214 219 223
199 192 181 172 161 182 190 182 188 200 209 196 186 175 191 208 185 160 161 1 73 121 151 161 151 127 138 190 182 136 110 106 99 104 123 130 132 145 148 150 154 152 140 142 148 165 177 167 156 179 191 198 25 139 136 104 138 252 252 216 190 205 219 211 211 222 218 217 225 232 241 249 198 149 164 169 170 187 200 204 208 213 217 221 226 230 233 234